WLF626 KDEN-KPHX

Flight info

Callsign WLF626
Flight time N/A
Altitude 36000
Route SMMUR2 DAAYE GUP EAGUL6
Aircraft B77L/H-SDE1E2E3FGHIJ2J3J4J5M1RWXY/LB1D1

Departure

Time 2026-05-05 21:27
Airport Denver International Airport (KDEN)

Arrival

Time N/A
Airport Phoenix Sky Harbor International Airport (KPHX)
Time Latitude Longitude Altitude Speed Heading
2026-05-05 20:20 39.83089 -104.67486 5386 ft 0 kts 359°
2026-05-05 20:53 39.83075 -104.67485 5387 ft 4 kts 359°
2026-05-05 20:54 39.83051 -104.67485 5386 ft 4 kts
2026-05-05 20:54 39.83027 -104.67495 5384 ft 4 kts 45°
2026-05-05 20:54 39.83014 -104.67524 5389 ft 4 kts 78°
2026-05-05 20:54 39.83011 -104.67558 5384 ft 4 kts 91°
2026-05-05 20:55 39.83013 -104.67593 5383 ft 4 kts 94°
2026-05-05 20:55 39.83013 -104.67607 5391 ft 1 kts 90°
2026-05-05 20:58 39.83013 -104.67608 5391 ft 2 kts 90°
2026-05-05 21:00 39.83013 -104.67618 5391 ft 1 kts 90°
2026-05-05 21:00 39.83013 -104.67624 5390 ft 1 kts 90°
2026-05-05 21:00 39.83013 -104.67615 5391 ft 0 kts 90°
2026-05-05 21:00 39.83013 -104.67607 5386 ft 1 kts 90°
2026-05-05 21:01 39.83013 -104.67604 5391 ft 0 kts 90°
2026-05-05 21:04 39.83089 -104.67485 5391 ft 17 kts 359°
2026-05-05 21:05 39.83089 -104.67486 5393 ft 0 kts 359°
2026-05-05 21:14 39.83071 -104.67485 5393 ft 4 kts 359°
2026-05-05 21:15 39.83049 -104.67485 5393 ft 4 kts
2026-05-05 21:15 39.83025 -104.67496 5390 ft 4 kts 47°
2026-05-05 21:15 39.83013 -104.67525 5392 ft 4 kts 83°
2026-05-05 21:15 39.83012 -104.67540 5392 ft 1 kts 90°
2026-05-05 21:19 39.83012 -104.67530 5390 ft 4 kts 90°
2026-05-05 21:19 39.83012 -104.67427 5386 ft 19 kts 90°
2026-05-05 21:20 39.82972 -104.67203 5389 ft 31 kts 114°
2026-05-05 21:20 39.82936 -104.66899 5411 ft 39 kts 89°
2026-05-05 21:20 39.82933 -104.66534 5432 ft 41 kts 90°
2026-05-05 21:20 39.82985 -104.66269 5447 ft 28 kts 15°
2026-05-05 21:21 39.83197 -104.66266 5442 ft 33 kts
2026-05-05 21:21 39.83449 -104.66260 5435 ft 39 kts
2026-05-05 21:21 39.83737 -104.66257 5419 ft 44 kts 359°
2026-05-05 21:21 39.84049 -104.66255 5415 ft 47 kts
2026-05-05 21:22 39.84369 -104.66253 5413 ft 47 kts
2026-05-05 21:22 39.84706 -104.66245 5408 ft 50 kts
2026-05-05 21:22 39.85070 -104.66245 5400 ft 54 kts 360°
2026-05-05 21:22 39.85454 -104.66238 5396 ft 56 kts
2026-05-05 21:23 39.85847 -104.66234 5390 ft 54 kts
2026-05-05 21:23 39.86233 -104.66222 5388 ft 57 kts
2026-05-05 21:23 39.86619 -104.66225 5388 ft 51 kts
2026-05-05 21:23 39.86974 -104.66221 5373 ft 51 kts
2026-05-05 21:24 39.87248 -104.66217 5369 ft 38 kts
2026-05-05 21:24 39.87502 -104.66212 5365 ft 33 kts
2026-05-05 21:24 39.87707 -104.66212 5362 ft 23 kts
2026-05-05 21:24 39.87757 -104.66075 5360 ft 17 kts 93°
2026-05-05 21:25 39.87756 -104.66066 5362 ft 0 kts 93°
2026-05-05 21:25 39.87756 -104.66065 5362 ft 1 kts 93°
2026-05-05 21:26 39.87754 -104.65988 5361 ft 21 kts 90°
2026-05-05 21:26 39.87750 -104.65656 5358 ft 64 kts 90°
2026-05-05 21:26 39.87744 -104.64512 5343 ft 187 kts 91°
2026-05-05 21:26 39.87735 -104.62468 5914 ft 245 kts 88°
2026-05-05 21:27 39.87800 -104.60206 7666 ft 266 kts 84°
2026-05-05 21:27 39.88079 -104.57998 9996 ft 217 kts 88°
2026-05-05 21:27 39.87914 -104.56209 11462 ft 193 kts 120°
2026-05-05 21:27 39.87184 -104.54677 11908 ft 211 kts 127°
2026-05-05 21:28 39.86369 -104.52951 12361 ft 235 kts 125°
2026-05-05 21:28 39.85546 -104.51066 12976 ft 250 kts 123°
2026-05-05 21:28 39.84709 -104.49012 13691 ft 263 kts 122°
2026-05-05 21:28 39.83941 -104.46813 14410 ft 268 kts 120°
2026-05-05 21:29 39.83111 -104.44628 15180 ft 272 kts 123°
2026-05-05 21:29 39.82232 -104.42418 15936 ft 278 kts 122°
2026-05-05 21:29 39.81237 -104.40295 16717 ft 271 kts 141°
2026-05-05 21:29 39.79713 -104.38906 17200 ft 269 kts 167°
2026-05-05 21:30 39.77898 -104.38181 17718 ft 278 kts 173°
2026-05-05 21:30 39.75985 -104.37471 18211 ft 295 kts 172°
2026-05-05 21:30 39.73934 -104.36702 18541 ft 318 kts 171°
2026-05-05 21:30 39.71738 -104.36056 18795 ft 328 kts 184°
2026-05-05 21:31 39.69503 -104.36495 19224 ft 325 kts 206°
2026-05-05 21:31 39.67375 -104.37626 19925 ft 335 kts 208°
2026-05-05 21:31 39.65210 -104.38799 20536 ft 353 kts 208°
2026-05-05 21:31 39.62839 -104.40075 20735 ft 383 kts 207°
2026-05-05 21:32 39.60320 -104.41407 21297 ft 398 kts 206°
2026-05-05 21:32 39.57715 -104.42773 22048 ft 408 kts 206°
2026-05-05 21:32 39.55070 -104.44155 22810 ft 411 kts 206°
2026-05-05 21:32 39.52520 -104.45847 22944 ft 410 kts 220°
2026-05-05 21:33 39.50555 -104.48427 22955 ft 399 kts 235°
2026-05-05 21:33 39.48855 -104.51291 22951 ft 402 kts 234°
2026-05-05 21:33 39.47118 -104.54139 22955 ft 402 kts 234°
2026-05-05 21:33 39.45369 -104.56958 22955 ft 401 kts 233°
2026-05-05 21:34 39.43615 -104.59765 22957 ft 401 kts 233°
2026-05-05 21:34 39.41858 -104.62568 22952 ft 401 kts 233°
2026-05-05 21:34 39.40102 -104.65365 22958 ft 401 kts 233°
2026-05-05 21:34 39.38348 -104.68159 22964 ft 400 kts 233°
2026-05-05 21:35 39.36598 -104.70956 22935 ft 400 kts 233°
2026-05-05 21:35 39.34846 -104.73760 22930 ft 401 kts 233°
2026-05-05 21:35 39.33092 -104.76567 23124 ft 403 kts 233°
2026-05-05 21:35 39.31317 -104.79407 23962 ft 409 kts 233°
2026-05-05 21:36 39.29545 -104.82241 24828 ft 410 kts 233°
2026-05-05 21:36 39.27756 -104.85095 25854 ft 409 kts 233°
2026-05-05 21:36 39.25961 -104.87956 26683 ft 413 kts 233°
2026-05-05 21:36 39.24139 -104.90859 27402 ft 418 kts 233°
2026-05-05 21:37 39.22305 -104.93781 28088 ft 425 kts 233°
2026-05-05 21:37 39.20420 -104.96783 28708 ft 432 kts 233°
2026-05-05 21:37 39.18520 -104.99799 29444 ft 436 kts 233°
2026-05-05 21:37 39.16597 -105.02847 30166 ft 439 kts 233°
2026-05-05 21:38 39.14530 -105.05744 30777 ft 443 kts 224°
2026-05-05 21:38 39.11944 -105.07894 31593 ft 441 kts 211°
2026-05-05 21:38 39.09164 -105.09560 32408 ft 438 kts 211°
2026-05-05 21:38 39.06441 -105.11251 33285 ft 431 kts 212°
2026-05-05 21:39 39.03770 -105.12950 34137 ft 424 kts 213°
2026-05-05 21:39 39.01158 -105.14633 35004 ft 416 kts 213°
2026-05-05 21:39 38.98581 -105.16303 35646 ft 414 kts 213°
2026-05-05 21:39 38.96873 -105.17416 35860 ft 417 kts 213°
2026-05-05 21:40 38.90765 -105.21383 35756 ft 422 kts 213°
2026-05-05 21:40 38.85566 -105.24729 35684 ft 416 kts 213°
2026-05-05 21:41 38.81259 -105.27502 35671 ft 416 kts 213°
2026-05-05 21:41 38.76095 -105.30821 35669 ft 415 kts 213°
2026-05-05 21:42 38.70942 -105.34123 35677 ft 413 kts 213°
2026-05-05 21:42 38.65802 -105.37417 35676 ft 413 kts 213°
2026-05-05 21:43 38.60666 -105.40704 35702 ft 412 kts 213°
2026-05-05 21:43 38.55532 -105.43984 35690 ft 412 kts 213°
2026-05-05 21:44 38.50415 -105.47244 35703 ft 409 kts 213°
2026-05-05 21:44 38.45323 -105.50489 35713 ft 408 kts 213°
2026-05-05 21:45 38.40237 -105.53693 35709 ft 407 kts 213°
2026-05-05 21:45 38.35151 -105.56845 35718 ft 406 kts 213°
2026-05-05 21:46 38.30103 -105.59975 35668 ft 406 kts 213°
2026-05-05 21:46 38.25038 -105.63113 35687 ft 404 kts 214°
2026-05-05 21:47 38.19990 -105.66244 35670 ft 403 kts 213°
2026-05-05 21:47 38.14948 -105.69355 35671 ft 402 kts 213°
2026-05-05 21:48 38.09900 -105.72478 35655 ft 405 kts 213°
2026-05-05 21:48 38.04816 -105.75613 35602 ft 407 kts 214°
2026-05-05 21:49 38.00057 -105.79104 35602 ft 383 kts 227°
2026-05-05 21:49 37.96390 -105.83898 35612 ft 385 kts 230°
2026-05-05 21:50 37.92601 -105.88782 35609 ft 391 kts 230°
2026-05-05 21:50 37.88753 -105.93694 35619 ft 393 kts 230°
2026-05-05 21:51 37.84904 -105.98593 35650 ft 391 kts 230°
2026-05-05 21:51 37.81073 -106.03469 35708 ft 390 kts 229°
2026-05-05 21:52 37.75356 -106.10725 35780 ft 386 kts 230°
2026-05-05 21:53 37.71583 -106.15508 35822 ft 383 kts 230°
2026-05-05 21:53 37.67858 -106.20228 35851 ft 381 kts 230°
2026-05-05 21:54 37.64113 -106.24966 35868 ft 381 kts 230°
2026-05-05 21:54 37.60370 -106.29688 35862 ft 380 kts 230°
2026-05-05 21:55 37.56625 -106.34409 35843 ft 381 kts 230°
2026-05-05 21:55 37.52834 -106.39188 35824 ft 391 kts 229°
2026-05-05 21:56 37.48959 -106.44047 35814 ft 391 kts 229°
2026-05-05 21:56 37.45109 -106.48884 35787 ft 390 kts 229°
2026-05-05 21:57 37.41269 -106.53693 35784 ft 389 kts 229°
2026-05-05 21:57 37.37453 -106.58470 35762 ft 388 kts 229°
2026-05-05 21:58 37.33629 -106.63241 35780 ft 387 kts 229°
2026-05-05 21:58 37.29786 -106.68030 35789 ft 386 kts 229°
2026-05-05 21:59 37.25994 -106.72762 35798 ft 387 kts 229°
2026-05-05 21:59 37.22167 -106.77514 35789 ft 386 kts 229°
2026-05-05 22:00 37.18350 -106.82252 35793 ft 385 kts 229°
2026-05-05 22:00 37.14542 -106.86976 35782 ft 384 kts 229°
2026-05-05 22:01 37.10750 -106.91666 35765 ft 383 kts 229°
2026-05-05 22:01 37.06951 -106.96352 35768 ft 383 kts 229°
2026-05-05 22:02 37.03155 -107.01038 35746 ft 383 kts 229°
2026-05-05 22:02 36.99361 -107.05717 35761 ft 384 kts 229°
2026-05-05 22:03 36.95544 -107.10422 35738 ft 386 kts 228°
2026-05-05 22:03 36.91742 -107.15094 35742 ft 385 kts 228°
2026-05-05 22:04 36.87934 -107.19758 35732 ft 381 kts 228°
2026-05-05 22:04 36.84158 -107.24379 35732 ft 379 kts 228°
2026-05-05 22:05 36.80413 -107.28967 35721 ft 377 kts 228°
2026-05-05 22:05 36.76670 -107.33534 35745 ft 377 kts 228°
2026-05-05 22:06 36.72913 -107.38112 35740 ft 378 kts 228°
2026-05-05 22:06 36.69163 -107.42680 35758 ft 380 kts 227°
2026-05-05 22:07 36.65378 -107.47304 35768 ft 381 kts 227°
2026-05-05 22:07 36.61587 -107.51898 35753 ft 379 kts 227°
2026-05-05 22:08 36.57820 -107.56458 35770 ft 377 kts 227°
2026-05-05 22:08 36.54062 -107.61006 35787 ft 376 kts 227°
2026-05-05 22:09 36.50311 -107.65543 35792 ft 376 kts 227°
2026-05-05 22:09 36.46555 -107.70077 35805 ft 376 kts 227°
2026-05-05 22:10 36.42804 -107.74608 35825 ft 375 kts 227°
2026-05-05 22:10 36.39047 -107.79123 35824 ft 376 kts 227°
2026-05-05 22:11 36.35310 -107.83612 35791 ft 376 kts 227°
2026-05-05 22:11 36.31562 -107.88114 35826 ft 375 kts 227°
2026-05-05 22:12 36.27812 -107.92610 35832 ft 374 kts 227°
2026-05-05 22:12 36.24064 -107.97098 35836 ft 375 kts 227°
2026-05-05 22:13 36.20305 -108.01592 35830 ft 375 kts 227°
2026-05-05 22:13 36.16552 -108.06079 35816 ft 376 kts 227°
2026-05-05 22:14 36.12792 -108.10569 35825 ft 376 kts 227°
2026-05-05 22:14 36.09023 -108.15047 35828 ft 376 kts 227°
2026-05-05 22:15 36.05245 -108.19531 35804 ft 375 kts 227°
2026-05-05 22:15 36.01501 -108.23975 35811 ft 375 kts 227°
2026-05-05 22:16 35.97734 -108.28441 35811 ft 375 kts 227°
2026-05-05 22:16 35.93966 -108.32900 35813 ft 375 kts 227°
2026-05-05 22:17 35.90193 -108.37362 35809 ft 376 kts 227°
2026-05-05 22:17 35.86416 -108.41820 35806 ft 376 kts 227°
2026-05-05 22:18 35.82634 -108.46281 35806 ft 377 kts 227°
2026-05-05 22:18 35.78846 -108.50744 35805 ft 378 kts 227°
2026-05-05 22:19 35.75044 -108.55215 35794 ft 378 kts 227°
2026-05-05 22:19 35.71253 -108.59665 35806 ft 379 kts 227°
2026-05-05 22:20 35.67427 -108.64147 35803 ft 380 kts 227°
2026-05-05 22:20 35.63601 -108.68627 35818 ft 380 kts 227°
2026-05-05 22:21 35.59768 -108.73110 35807 ft 380 kts 227°
2026-05-05 22:21 35.57853 -108.75347 36001 ft 380 kts 227°
2026-05-05 22:21 35.55938 -108.77580 36001 ft 379 kts 227°
2026-05-05 22:22 35.52137 -108.82016 36004 ft 379 kts 227°
2026-05-05 22:22 35.48304 -108.86478 35961 ft 380 kts 227°
2026-05-05 22:23 35.44594 -108.91070 35974 ft 378 kts 229°
2026-05-05 22:23 35.40993 -108.95791 35933 ft 378 kts 229°
2026-05-05 22:24 35.37390 -109.00500 35915 ft 379 kts 229°
2026-05-05 22:24 35.33784 -109.05177 35863 ft 380 kts 229°
2026-05-05 22:25 35.30144 -109.09875 35835 ft 379 kts 229°
2026-05-05 22:25 35.26506 -109.14571 35821 ft 379 kts 229°
2026-05-05 22:26 35.22869 -109.19252 35821 ft 379 kts 229°
2026-05-05 22:26 35.19234 -109.23925 35809 ft 380 kts 229°
2026-05-05 22:27 35.15604 -109.28584 35801 ft 378 kts 229°
2026-05-05 22:27 35.11969 -109.33243 35807 ft 378 kts 229°
2026-05-05 22:28 35.08335 -109.37896 35801 ft 379 kts 229°
2026-05-05 22:28 35.04718 -109.42522 35800 ft 379 kts 229°
2026-05-05 22:29 35.01074 -109.47174 35817 ft 379 kts 229°
2026-05-05 22:29 34.97416 -109.51838 35800 ft 381 kts 229°
2026-05-05 22:30 34.93750 -109.56505 35803 ft 381 kts 229°
2026-05-05 22:30 34.90076 -109.61174 35800 ft 381 kts 229°
2026-05-05 22:31 34.87022 -109.65054 35776 ft 381 kts 229°
2026-05-05 22:31 34.83368 -109.69688 35793 ft 378 kts 229°
2026-05-05 22:32 34.79150 -109.75059 35796 ft 377 kts 229°
2026-05-05 22:32 34.76138 -109.78897 35797 ft 376 kts 229°
2026-05-05 22:33 34.72517 -109.83502 35806 ft 377 kts 229°
2026-05-05 22:33 34.69566 -109.88696 35798 ft 375 kts 244°
2026-05-05 22:34 34.67465 -109.94508 35810 ft 376 kts 244°
2026-05-05 22:34 34.65320 -110.00332 35814 ft 378 kts 243°
2026-05-05 22:35 34.63154 -110.06149 35807 ft 378 kts 243°
2026-05-05 22:35 34.60975 -110.11982 35822 ft 379 kts 243°
2026-05-05 22:36 34.58806 -110.17772 35833 ft 378 kts 243°
2026-05-05 22:36 34.56687 -110.23429 35605 ft 358 kts 243°
2026-05-05 22:36 34.55658 -110.26169 34967 ft 355 kts 243°
2026-05-05 22:37 34.54632 -110.28897 34143 ft 356 kts 243°
2026-05-05 22:37 34.53598 -110.31644 33200 ft 358 kts 243°
2026-05-05 22:37 34.52567 -110.34385 32525 ft 353 kts 243°
2026-05-05 22:37 34.51572 -110.37031 32321 ft 338 kts 243°
2026-05-05 22:38 34.50615 -110.39571 32171 ft 324 kts 242°
2026-05-05 22:38 34.49698 -110.42003 32040 ft 310 kts 242°
2026-05-05 22:38 34.48807 -110.44360 31558 ft 306 kts 242°
2026-05-05 22:38 34.47924 -110.46685 31068 ft 302 kts 242°
2026-05-05 22:39 34.47052 -110.48987 30611 ft 299 kts 242°
2026-05-05 22:39 34.46187 -110.51271 30115 ft 297 kts 242°
2026-05-05 22:39 34.45327 -110.53540 29550 ft 295 kts 242°
2026-05-05 22:39 34.44484 -110.55761 28998 ft 293 kts 242°
2026-05-05 22:40 34.43639 -110.57987 28484 ft 290 kts 242°
2026-05-05 22:40 34.42800 -110.60195 27983 ft 287 kts 242°
2026-05-05 22:40 34.41966 -110.62387 27522 ft 287 kts 242°
2026-05-05 22:40 34.41123 -110.64603 27030 ft 292 kts 242°
2026-05-05 22:41 34.40264 -110.66858 26519 ft 297 kts 242°
2026-05-05 22:41 34.39391 -110.69152 26025 ft 302 kts 243°
2026-05-05 22:41 34.38512 -110.71464 25617 ft 303 kts 243°
2026-05-05 22:41 34.37628 -110.73780 25272 ft 303 kts 243°
2026-05-05 22:42 34.36743 -110.76093 24949 ft 302 kts 243°